Weather History for Luxor, Egypt

Change the Weather History Date:

Saturday, December 29, 2012

  Actual Average Record
Temperature  
Mean Temperature 62 °F -  
Max Temperature 74 °F 70 °F 86 °F (2000)
Min Temperature 49 °F 44 °F 41 °F (2003)
Degree Days  
Heating Degree Days 4    
Growing Degree Days 12 (Base 50)    
Moisture  
Dew Point 48 °F    
Average Humidity 64    
Maximum Humidity 82    
Minimum Humidity 32    
Precipitation  
Precipitation 0.00 in 0.00 in - ()
Sea Level Pressure  
Sea Level Pressure 30.00 in    
Wind  
Wind Speed 1 mph ()    
Max Wind Speed 7 mph    
Max Gust Speed -    
Visibility 4.9 miles    
Events      
Averages and records for this station are not official NWS values.
T = Trace of Precipitation, MM = Missing Value Source: Averaged Metar Reports

Daily Weather History Graph

Daily Weather History Graph

Search for Another Location

Airport:

Trip Planner

Search our weather history database for the weather conditions in past years. The results will help you decide how hot, cold, wet, or windy it might be!

Date:

Astronomy

Dec. 29, 2012 Rise Set
Actual Time 6:34 AM EET 5:08 PM EET
Civil Twilight 6:09 AM EET 5:33 PM EET
Nautical Twilight 5:40 AM EET 6:01 PM EET
Astronomical Twilight 5:12 AM EET 6:30 PM EET
Moon 6:13 PM EET (12/29) 7:02 AM EET (12/29)
Length of Visible Light 11h 23m
Length of Day
10h 33m
Full, 99% of the Moon is Illuminated
Dec 29
Full
Jan 5
Last Quarter
Jan 11
New
Jan 19
First Quarter
Jan 27
Full

Hourly Weather History & Observations

Time (EET) Temp. Dew Point Humidity Pressure Visibility Wind Dir Wind Speed Gust Speed Precip Events Conditions
12:00 AM 55.4 °F 44.6 °F 67% 30.01 in - Calm Calm - N/A   Clear
1:00 AM 55.4 °F 46.4 °F 72% 30.01 in - SSE 2.3 mph - N/A   Clear
2:00 AM 53 °F 44 °F 64% 30.01 in 6 mi Calm Calm - -  
2:00 AM 53.6 °F 44.6 °F 72% 30.01 in - Calm Calm - N/A   Clear
3:00 AM 53.6 °F 46.4 °F 77% 29.98 in - Calm Calm - N/A   Clear
4:00 AM 51.8 °F 46.4 °F 82% 29.98 in - Calm Calm - N/A   Clear
5:00 AM 51.8 °F 42.8 °F 71% 29.98 in - Calm Calm - N/A   Clear
6:00 AM 50.0 °F 42.8 °F 76% 29.98 in - Calm Calm - N/A   Clear
7:00 AM 50.0 °F 44.6 °F 82% 30.01 in 5.0 mi Calm Calm - N/A   Unknown
8:00 AM 54 °F 49 °F 77% 30.03 in 5 mi Calm Calm - -   Mist
8:00 AM 53.6 °F 48.2 °F 82% 30.01 in 5.0 mi Calm Calm - N/A   Unknown
9:00 AM 59.0 °F 51.8 °F 77% 30.04 in 3.7 mi Calm Calm - N/A   Unknown
10:00 AM 62.6 °F 51.8 °F 68% 30.04 in 3.7 mi Calm Calm - N/A   Unknown
11:00 AM 68.0 °F 51.8 °F 56% 30.01 in 3.7 mi Calm Calm - N/A   Unknown
12:00 PM 69.8 °F 51.8 °F 53% 29.98 in 5.0 mi Calm Calm - N/A   Unknown
1:00 PM 71.6 °F 50.0 °F 46% 29.95 in 5.0 mi NW 3.5 mph - N/A   Unknown
2:00 PM 73 °F 49 °F 32% 29.95 in 6 mi Calm Calm - -  
2:00 PM 73.4 °F 50.0 °F 44% 29.95 in - Calm Calm - N/A   Volcanic Ash
3:00 PM 73.4 °F 48.2 °F 41% 29.95 in - WSW 4.6 mph - N/A   Clear
4:00 PM 71.6 °F 46.4 °F 41% 29.95 in - West 6.9 mph - N/A   Clear
5:00 PM 69.8 °F 48.2 °F 46% 29.95 in - WSW 3.5 mph - N/A   Clear
6:00 PM 64.4 °F 48.2 °F 56% 29.98 in - West 3.5 mph - N/A   Clear
7:00 PM 60.8 °F 46.4 °F 59% 29.98 in - West 2.3 mph - N/A   Clear
8:00 PM 60 °F 49 °F 59% 30.02 in 6 mi West 2.3 mph - -   Scattered Clouds
8:00 PM 59.0 °F 50.0 °F 72% 30.01 in - West 2.3 mph - N/A   Clear
9:00 PM 59.0 °F 51.8 °F 77% 30.01 in - SSW 2.3 mph - N/A   Clear
10:00 PM 57.2 °F 50.0 °F 77% 30.04 in - SE 3.5 mph - N/A   Clear
11:00 PM 55.4 °F 48.2 °F 77% 30.04 in - SSE 2.3 mph - N/A   Clear